TimeEDT,TemperatureF,Dew PointF,Humidity,Sea Level PressureIn,VisibilityMPH,Wind Direction,Wind SpeedMPH,Gust SpeedMPH,PrecipitationIn,Events,Conditions,WindDirDegrees,DateUTC
12:54 AM,59.0,57.9,96,30.03,8.0,Calm,Calm,-,N/A,,Clear,0,2013-08-20 04:54:00
1:54 AM,59.0,57.9,96,30.04,7.0,Calm,Calm,-,N/A,,Clear,0,2013-08-20 05:54:00
2:12 AM,57.2,57.2,100,30.04,2.5,Calm,Calm,-,N/A,,Scattered Clouds,0,2013-08-20 06:12:00
2:16 AM,57.2,57.2,100,30.04,3.0,Calm,Calm,-,N/A,,Mostly Cloudy,0,2013-08-20 06:16:00
2:54 AM,57.0,57.0,100,30.04,7.0,Calm,Calm,-,N/A,,Mostly Cloudy,0,2013-08-20 06:54:00
3:20 AM,57.2,57.2,100,30.05,1.2,Calm,Calm,-,N/A,,Overcast,0,2013-08-20 07:20:00
3:24 AM,57.2,57.2,100,30.04,0.2,Calm,Calm,-,N/A,Fog,Fog,0,2013-08-20 07:24:00
3:45 AM,57.2,57.2,100,30.04,0.8,Calm,Calm,-,N/A,,Mist,0,2013-08-20 07:45:00
3:54 AM,57.9,57.9,100,30.04,0.2,Calm,Calm,-,N/A,Fog,Fog,0,2013-08-20 07:54:00
4:07 AM,57.2,57.2,100,30.04,0.5,Calm,Calm,-,N/A,Fog,Fog,0,2013-08-20 08:07:00
4:15 AM,57.2,57.2,100,30.04,0.2,Calm,Calm,-,N/A,Fog,Fog,0,2013-08-20 08:15:00
4:54 AM,57.0,57.0,100,30.05,0.2,Calm,Calm,-,N/A,Fog,Fog,0,2013-08-20 08:54:00
5:54 AM,57.0,57.0,100,30.06,0.2,Calm,Calm,-,N/A,Fog,Fog,0,2013-08-20 09:54:00
6:54 AM,55.9,55.9,100,30.08,0.2,Calm,Calm,-,0.01,Fog,Fog,0,2013-08-20 10:54:00
7:54 AM,55.9,55.9,100,30.10,0.2,Calm,Calm,-,N/A,Fog,Fog,0,2013-08-20 11:54:00
8:27 AM,57.2,57.2,100,30.11,1.0,Calm,Calm,-,N/A,,Overcast,0,2013-08-20 12:27:00
8:36 AM,57.2,57.2,100,30.11,2.0,Calm,Calm,-,N/A,,Overcast,0,2013-08-20 12:36:00
8:43 AM,57.2,57.2,100,30.11,1.2,Calm,Calm,-,N/A,,Overcast,0,2013-08-20 12:43:00
8:54 AM,59.0,59.0,100,30.11,2.0,Calm,Calm,-,N/A,,Overcast,0,2013-08-20 12:54:00
9:05 AM,60.8,59.0,94,30.11,7.0,Calm,Calm,-,N/A,,Mostly Cloudy,0,2013-08-20 13:05:00
9:15 AM,60.8,60.8,100,30.11,10.0,Calm,Calm,-,N/A,,Scattered Clouds,0,2013-08-20 13:15:00
9:54 AM,70.0,59.0,68,30.10,10.0,Calm,Calm,-,N/A,,Clear,0,2013-08-20 13:54:00
10:54 AM,75.9,60.1,58,30.09,10.0,Calm,Calm,-,N/A,,Clear,0,2013-08-20 14:54:00
11:54 AM,80.1,59.0,48,30.09,10.0,Variable,3.5,-,N/A,,Clear,0,2013-08-20 15:54:00
12:54 PM,82.0,55.9,41,30.08,10.0,Variable,6.9,-,N/A,,Clear,0,2013-08-20 16:54:00
1:54 PM,82.0,55.0,39,30.08,10.0,North,4.6,-,N/A,,Clear,350,2013-08-20 17:54:00
2:54 PM,82.9,55.9,39,30.07,10.0,NNW,6.9,-,N/A,,Clear,340,2013-08-20 18:54:00
3:54 PM,82.9,55.0,38,30.07,10.0,Variable,4.6,-,N/A,,Clear,0,2013-08-20 19:54:00
4:54 PM,82.9,57.0,41,30.07,10.0,NW,6.9,-,N/A,,Clear,310,2013-08-20 20:54:00
5:54 PM,82.0,57.9,44,30.07,10.0,Variable,4.6,-,N/A,,Clear,0,2013-08-20 21:54:00
6:54 PM,79.0,62.1,56,30.07,10.0,Calm,Calm,-,N/A,,Clear,0,2013-08-20 22:54:00
7:54 PM,72.0,64.0,76,30.09,10.0,Calm,Calm,-,N/A,,Clear,0,2013-08-20 23:54:00
8:54 PM,68.0,64.0,87,30.11,10.0,Calm,Calm,-,N/A,,Clear,0,2013-08-21 00:54:00
9:54 PM,64.9,62.1,90,30.12,9.0,Calm,Calm,-,N/A,,Clear,0,2013-08-21 01:54:00
10:54 PM,63.0,61.0,93,30.12,7.0,Calm,Calm,-,N/A,,Clear,0,2013-08-21 02:54:00
11:54 PM,62.1,60.1,93,30.13,6.0,Calm,Calm,-,N/A,,Clear,0,2013-08-21 03:54:00